Regional Weather Roundup
Issued by NWS

Home | Current Version | Previous Version | Text Only | Print | Product List | Glossary Off
Versions: 1 2 3 4 5 6 7 8 9 10 11 12 13 14 15 16 17 18 19 20 21 22 23 24 25 26 27 28 29 30 31 32 33 34 35 36 37 38 39 40 41 42 43 44 45 46 47 48 49 50

000
ASUS45 KBOU 020507
RWRCO

WEATHER ROUNDUP FOR COLORADO
NATIONAL WEATHER SERVICE DENVER/BOULDER CO
1000 PM MST SUN MAR 01 2015

NOTE: "FAIR" INDICATES FEW OR NO CLOUDS BELOW 12000 FEET WITH NO
SIGNIFICANT WEATHER AND/OR OBSTRUCTIONS TO VISIBILITY.

COZ001>005-013-030-031-020600-
...NORTHWEST COLORADO...

CITY           SKY/WX    TMP DP  RH WIND       PRES   REMARKS
CRAIG          CLOUDY    30  26  85 E3        30.06F
HAYDEN         CLOUDY    30  23  74 E6        30.06S WCI  24
MEEKER         CLOUDY    31  27  85 CALM      30.05S
MOUNT WERNER   NOT AVBL
STEAMBOAT SPGS CLOUDY    27  23  85 CALM      30.07S
WALDEN         CLOUDY    28  21  74 S5        30.05S WCI  23
$$

COZ006>008-011-020600-
...WEST CENTRAL VALLEYS...

CITY           SKY/WX    TMP DP  RH WIND       PRES   REMARKS
GRAND JUNCTION LGT RAIN  38  34  85 E8        30.05S
MONTROSE       CLOUDY    33  32  96 CALM      30.07F
EAGLE          LGT SNOW  34  30  86 CALM      30.09S FOG
RIFLE          CLOUDY    39  30  70 CALM      30.05S
DELTA          CLOUDY    38  35  91 NE6       30.07F
NUCLA          CLOUDY    34  34 100 CALM      30.08F
$$

COZ017>023-064>068-020600-
...SOUTHWEST COLORADO...

CITY           SKY/WX    TMP DP  RH WIND       PRES   REMARKS
DURANGO        CLOUDY    34  33  96 CALM      30.12R
CORTEZ         MOCLDY    34  33  96 CALM      30.07S
PAGOSA SPRINGS CLOUDY    36  36 100 NE3       30.15S
TELLURIDE      LGT SNOW  34  33  99 CALM      30.11S
WOLF CREEK PAS CLOUDY    23  23 100 SW32G49   30.18S WCI   5
$$

COZ009-010-012-014-032>034-037-058>063-020600-
...CENTRAL COLORADO...

CITY           SKY/WX    TMP DP  RH WIND       PRES   REMARKS
ASPEN          LGT SNOW  29  28  96 NW3       30.04S VSB 1
BUENA VISTA    LGT SNOW  21  19  91 SE6       30.14R WCI  13
COPPER MTN     LGT SNOW  25  19  80 S21       30.08S VSB 1   WCI  10
BERTHOUD PASS  LGT SNOW  18  10  73 S8G20     30.11S VSB 1   WCI   7
COTTONWOOD PAS LGT SNOW  28  27  93 CALM      30.10S
GUNNISON       CLOUDY    28  25  86 CALM      30.14R
KREMMLING      CLOUDY    30  27  86 CALM      30.08F
LEADVILLE      LGT SNOW  22  22 100 S6        30.07S FOG     WCI  14
SALIDA         CLOUDY    22  18  84 SE13G21   30.22S WCI  10
SUNLIGHT       LGT SNOW  27  25  93 CALM        N/A  VSB 3/4
WILKERSON PASS LGT SNOW  23  21  93 SW5       30.14S WCI  17
$$

COZ069>075-020600-
...SAN LUIS VALLEY/SANGRE DE CRISTO MOUNTAINS...

CITY           SKY/WX    TMP DP  RH WIND       PRES   REMARKS
ALAMOSA        MIX PCPN  30  28  92 VRB3      30.13R FOG
LA VETA PASS   LGT SNOW  30  28  93 S13G24    30.16R VSB 3/4 WCI  20
SAGUACHE       CLOUDY    32  30  93 CALM      30.13F
$$

COZ035-036-038>040-020600-
...NORTHERN COLORADO FRONT RANGE...

CITY           SKY/WX    TMP DP  RH WIND       PRES   REMARKS
DENVER INTL AP CLOUDY    24  18  77 SE12      30.21S WCI  13
DMNS CITY PARK   N/A     24  16  71 E1        30.21S
AURORA         MOCLDY    22  19  85 SE13      30.20F WCI  10
FRONT RANGE AP NOT AVBL
ERIE MUNI ARPT CLOUDY    24  20  83 CALM      30.23S
BOULDER MUN AP CLOUDY    23  19  86 CALM      30.22S
CENTENNIAL     FLURRIES  22  17  81 SE9       30.18F WCI  12
BROOMFIELD     CLOUDY    23  18  80 CALM      30.21S
FORT COLLINS   CLOUDY    25  18  74 S3        30.25S
LONGMONT       CLOUDY    26  19  76 NW3       30.25S
$$

COZ041-046-047-076>085-087-088-020600-
...PIKES PEAK/PALMER DIVIDE AND SOUTHERN FOOTHILLS...

CITY           SKY/WX    TMP DP  RH WIND       PRES   REMARKS
COLO. SPRINGS  CLOUDY    21  19  92 S9        30.24S FOG     WCI  11
A. F. ACADEMY  MOCLDY    19  16  88 S10       30.19S WCI   8
ELLICOTT       NOT AVBL
FALCON         CLOUDY    19  18  98 SW6       30.20F FOG     WCI  10
FORT CARSON    CLOUDY    22  18  84 S9        30.24S WCI  12
LIMON          CLOUDY    22  20  92 S6        30.26R WCI  14
MONUMENT HILL  MOCLDY    18  16  93 S18G24    30.14F FOG     WCI   2
TRINIDAD       CLOUDY    23  17  78 CALM      30.25S
$$

COZ042>045-048>051-090-091-020600-
...NORTHEAST COLORADO...

CITY           SKY/WX    TMP DP  RH WIND       PRES   REMARKS
GREELEY ARPT   CLOUDY    27  16  63 CALM      30.24S
AKRON          CLOUDY    28  19  69 SE9       30.27R WCI  19
BURLINGTON     CLOUDY    29  20  69 S7        30.32R WCI  22
WRAY           CLOUDY    32  17  54 SE6       30.33S WCI  26
STERLING       CLOUDY    27  21  80 SE3       30.28F
HOLYOKE        NOT AVBL
FORT MORGAN    CLOUDY    27  19  74 E5        30.28S WCI  21
$$

COZ086-089-092>099-020600-
...SOUTHEAST COLORADO...

CITY           SKY/WX    TMP DP  RH WIND       PRES   REMARKS
PUEBLO         CLOUDY    26  21  81 SW5       30.29S WCI  20
LA JUNTA       CLOUDY    28  22  78 W3        30.32R
LAMAR          CLOUDY    28  22  78 SE5       30.33S WCI  23
SPRINGFIELD      N/A     24  21  88 CALM      30.31S
$$



USA.gov is the U.S. government's official web portal to all federal, state and local government web resources and services.